Regional Weather Roundup
Issued by NWS Cleveland, OH

Home | Current Version | Previous Version | Text Only | Print | Product List | Glossary On
Versions: 1 2 3 4 5 6 7 8 9 10 11 12 13 14 15 16 17 18 19 20 21 22 23 24 25 26 27 28 29 30 31 32 33 34 35 36 37 38 39 40 41 42 43 44 45 46 47 48 49 50
000
ASUS41 KCLE 261112
RWRCLE
OHIO REGIONAL WEATHER ROUNDUP
NATIONAL WEATHER SERVICE WILMINGTON, OH
700 AM EDT FRI MAY 26 2017

NOTE: "FAIR" INDICATES FEW OR NO CLOUDS BELOW 12,000 FEET WITH NO
SIGNIFICANT WEATHER AND/OR OBSTRUCTIONS TO VISIBILITY.

OHZ001>008-015>018-024>027-034-035-043-044-261200-
   NORTHWEST OHIO

CITY           SKY/WX    TMP DP  RH WIND       PRES   REMARKS
DEFIANCE       CLOUDY    53  51  93 NW9       29.82R
FINDLAY        CLOUDY    55  51  86 W12       29.80R FOG
TOLEDO EXPRESS CLOUDY    54  53  97 W9        29.78R
TOLEDO EXEC    CLOUDY    58  56  93 W10       29.79R
LIMA           FAIR      53  52  96 W8        29.82R
$$

OHZ009>014-019>023-028>033-038-089-261200-
   NORTHEAST OHIO

CITY           SKY/WX    TMP DP  RH WIND       PRES   REMARKS
CLE-HOPKINS    CLOUDY    59  55  87 NW10      29.77R
CLE-LAKEFRONT  CLOUDY    57  54  89 W14       29.74R
CUY CO. ARPT   CLOUDY    55  55 100 NW9       29.74  FOG
LORAIN-ELYRIA  CLOUDY    57  51  80 NW8       29.76R
ASHTABULA      LGT RAIN  53  53 100 NW7       29.73R FOG
AKRON-CANTON   CLOUDY    59  55  87 W9        29.74R FOG
WOOSTER        CLOUDY    58  55  90 W9        29.76R
MANSFIELD      CLOUDY    56  55  97 W9        29.78R FOG
YOUNGSTOWN     LGT RAIN  55  53  93 NW10      29.72R
$$

OHZ042-051>053-060>062-070>072-077>081-261200-
  SOUTHWEST OHIO

CITY           SKY/WX    TMP DP  RH WIND       PRES   REMARKS
CINC-COVINGTON FAIR      50  50 100 SW3       29.89R
CINC-LUNKEN    FAIR      54  53  97 SW7       29.90R
HAMILTON       FAIR      55  55 100 W5        29.89R FOG
DAYTON         FAIR      56  52  86 W10       29.86R
WRIGHT-PAT AFB FAIR      53  53 100 W5        29.85R
DAYTON GENERAL FAIR      55  53  93 SW6       29.86R FOG
WILMINGTON     FAIR      56  55  97 W12       29.86R FOG
$$

OHZ036-037-039>041-045>050-054>059-063>069-073>076-082>088-261200-
  CENTRAL AND SOUTHEAST OHIO

CITY           SKY/WX    TMP DP  RH WIND       PRES   REMARKS
COLUMBUS       FAIR      57  55  93 W9        29.81R
OSU AIRPORT    FAIR      56  55  97 W10       29.82R
BOLTON FIELD   NOT AVBL
RICKENBACK AFB FAIR      55  55  99 W7        29.82R
NEWARK         CLOUDY    58  53  84 W13       29.81R
MARION         CLOUDY    56  52  86 W12       29.81R
LANCASTER      FAIR      59  54  83 W7        29.82R
ZANESVILLE     CLOUDY    59  54  83 W8        29.79R
NEW PHILLY     CLOUDY    59  56  89 W7        29.77R
$$




USA.gov is the U.S. government's official web portal to all federal, state and local government web resources and services.